Location: Unspecified
(0.0000°N, 0.0000°E)
Time: 03:54:30
(UTC+00:00)

Radcal - Visible Passes

Search period start: 03 June 2023 00:00
Search period end: 13 June 2023 00:00
Orbit: 750 x 876 km, 89.5° (Epoch: 02 June)

Date Brightness Start Highest point End Pass type
(mag) Time Alt. Az. Time Alt. Az. Time Alt. Az.
03 Jun 11.0 02:41:37 10° NE 02:41:43 10° NE 02:41:43 10° NE visible
04 Jun 10.4 03:59:18 10° NNW 03:59:31 11° NNW 03:59:31 11° NNW visible
05 Jun 10.5 03:35:50 10° NNW 03:36:09 12° NNW 03:36:09 12° NNW visible
06 Jun 10.7 03:12:44 10° N 03:12:48 10° N 03:12:48 10° N visible
